Powrót do katalogu

ANIK A2

TELESAT 2

AktywnyŁącznośćGEO
NORAD 6437·PAYLOAD·🇨🇦 Canada

Wystrzelony Apr 20, 1973 z Cape Canaveral Space Force Station

Loading…

TLE

ŚwieżeSource: Space-Track

Epoka: Sep 14, 2026, 13:26 UTC

1 06437U 73023A   26257.56007618  .00000102  00000-0  00000-0 0  9993
2 06437   6.7294 295.2078 0008853  78.9472  43.0538  0.99795311 48047

Śledź ANIK A2 w czasie rzeczywistym z AllMySat

Download on the App Store